IK1QAD-3 Weather Reports


time (UTC)temp
F
wind
direction
speed
knots
gust
knots
rain 1hr
in
rain 24hr
in
rain mn
in
humidity
%
barometer
mb
20260508011829 54 314 2.6 4.3 0.00 0.00 0.00 92 1012.7
20260508011326 54 341 1.7 4.3 0.00 0.00 0.00 92 1012.7
20260508010840 54 319 3.5 4.3 0.00 0.00 0.00 92 1012.8
20260508010336 54 336 2.6 4.3 0.00 0.00 0.00 93 1012.9
20260508005829 54 335 3.5 4.3 0.00 0.00 0.00 92 1012.9
20260508005326 54 324 2.6 4.3 0.00 0.00 0.00 92 1013.0
20260508004844 54 325 2.6 4.3 0.00 0.00 0.00 92 1012.9
20260508004338 55 339 3.5 4.3 0.00 0.00 0.00 92 1013.0
20260508003838 55 329 3.5 4.3 0.00 0.00 0.00 92 1013.1
20260508003331 55 333 3.5 4.3 0.00 0.00 0.00 92 1013.2
20260508002826 55 331 2.6 4.3 0.00 0.00 0.00 92 1013.3
20260508002342 55 329 2.6 4.3 0.00 0.00 0.00 92 1013.3
20260508001834 55 331 2.6 4.3 0.00 0.00 0.00 92 1013.4
20260508001333 55 328 2.6 4.3 0.00 0.00 0.00 92 1013.4
20260508000827 55 312 2.6 4.3 0.00 0.00 0.00 91 1013.5
20260508000324 55 321 3.5 4.3 0.00 0.00 0.00 91 1013.5
20260507235844 55 16 1.7 3.5 0.00 0.00 0.00 91 1013.6
20260507235341 55 360 1.7 3.5 0.00 0.00 0.00 91 1013.5
20260507234840 55 328 1.7 3.5 0.00 0.00 0.00 91 1013.6
20260507234332 55 336 2.6 4.3 0.00 0.00 0.00 91 1013.7
20260507233830 55 315 2.6 4.3 0.00 0.00 0.00 91 1013.8
20260507233328 56 322 3.5 4.3 0.00 0.00 0.00 90 1013.8
20260507232838 56 317 3.5 4.3 0.00 0.00 0.00 90 1013.9
20260507232336 56 13 1.7 3.5 0.00 0.00 0.00 90 1014.0
20260507231836 56 336 2.6 4.3 0.00 0.00 0.00 90 1013.9
20260507231334 56 344 2.6 3.5 0.00 0.00 0.00 90 1014.0
20260507230827 56 322 2.6 4.3 0.00 0.00 0.00 90 1014.1
20260507230324 56 351 2.6 4.3 0.00 0.00 0.00 90 1014.2
20260507225842 56 327 2.6 4.3 0.00 0.00 0.00 90 1014.3
20260507225334 56 336 2.6 4.3 0.00 0.00 0.00 90 1014.3
20260507224833 56 331 2.6 4.3 0.00 0.00 0.00 89 1014.3
20260507224328 56 338 2.6 5.2 0.00 0.00 0.00 89 1014.2
20260507223844 56 42 2.6 5.2 0.00 0.00 0.00 90 1014.2
20260507223343 56 338 1.7 3.5 0.00 0.00 0.00 90 1014.2
20260507222834 57 320 1.7 4.3 0.00 0.00 0.00 90 1014.2
20260507222333 57 323 1.7 3.5 0.00 0.00 0.00 90 1014.2
20260507221828 57 327 1.7 3.5 0.00 0.00 0.00 91 1014.2
20260507221326 57 355 2.6 3.5 0.00 0.00 0.00 90 1014.2
20260507220842 57 334 2.6 3.5 0.00 0.00 0.00 90 1014.2
20260507220335 57 30 2.6 3.5 0.00 0.00 0.00 90 1014.2
20260507215827 57 330 2.6 4.3 0.00 0.00 0.00 90 1014.2
20260507215343 57 331 2.6 4.3 0.00 0.00 0.00 89 1014.1
20260507214842 58 329 2.6 4.3 0.00 0.00 0.00 88 1014.1
20260507214340 58 336 2.6 4.3 0.00 0.00 0.00 88 1014.1
20260507213835 58 344 1.7 4.3 0.00 0.00 0.00 88 1014.0
20260507213332 58 360 1.7 4.3 0.00 0.00 0.00 88 1013.9
20260507212825 58 355 2.6 4.3 0.00 0.00 0.00 88 1014.0
20260507212343 58 355 1.7 2.6 0.00 0.00 0.00 88 1013.9
20260507211842 58 355 0.9 2.6 0.00 0.00 0.00 88 1014.0
20260507211338 58 17 0.9 3.5 0.00 0.00 0.00 88 1013.9
20260507210838 58 342 1.7 2.6 0.00 0.00 0.00 89 1013.9
20260507210332 58 355 0.9 2.6 0.00 0.00 0.00 89 1013.9
20260507205826 58 338 2.6 4.3 0.00 0.00 0.00 88 1013.8
20260507205324 58 342 1.7 5.2 0.00 0.00 0.00 88 1013.8
20260507204841 58 355 1.7 4.3 0.00 0.00 0.00 88 1013.7
20260507204341 58 355 1.7 4.3 0.00 0.00 0.00 89 1013.8
20260507203836 58 23 1.7 4.3 0.00 0.00 0.00 89 1013.8
20260507203336 57 355 2.6 4.3 0.00 0.00 0.00 90 1013.8
20260507202834 57 329 1.7 3.5 0.00 0.00 0.00 91 1013.8
20260507202332 57 345 1.7 3.5 0.00 0.00 0.00 91 1013.8
20260507201829 58 323 2.6 3.5 0.00 0.00 0.00 90 1013.8
20260507201328 58 336 2.6 3.5 0.00 0.00 0.00 89 1013.9
20260507200842 58 355 1.7 4.3 0.00 0.00 0.00 89 1013.8
20260507200341 58 11 1.7 4.3 0.00 0.00 0.00 88 1013.8
20260507195830 59 11 2.6 4.3 0.00 0.00 0.00 89 1013.7
20260507195326 59 319 1.7 4.3 0.00 0.00 0.00 89 1013.6
20260507194826 59 340 1.7 3.5 0.00 0.00 0.00 90 1013.6
20260507194338 59 336 1.7 2.6 0.00 0.00 0.00 90 1013.5
20260507193835 59 331 0.9 3.5 0.00 0.00 0.00 90 1013.5
20260507193328 59 321 1.7 3.5 0.00 0.00 0.00 89 1013.4
20260507192825 60 334 1.7 2.6 0.00 0.00 0.00 89 1013.4
20260507192339 60 329 1.7 2.6 0.00 0.00 0.00 89 1013.5
20260507191839 60 302 0.9 2.6 0.00 0.00 0.00 88 1013.3
20260507191336 60 342 0.9 3.5 0.00 0.00 0.00 89 1013.2
20260507190828 60 329 1.7 3.5 0.00 0.00 0.00 89 1013.2
20260507190326 60 351 1.7 2.6 0.00 0.00 0.00 89 1013.2
20260507185835 60 343 0.0 2.6 0.00 0.00 0.00 88 1013.1
20260507185334 60 349 1.7 3.5 0.00 0.00 0.00 88 1013.2
20260507184831 61 325 2.6 3.5 0.00 0.00 0.00 86 1013.2
20260507184326 61 329 1.7 2.6 0.00 0.00 0.00 86 1013.1
20260507183824 62 50 1.7 3.5 0.00 0.00 0.00 86 1013.3
20260507183340 62 46 1.7 4.3 0.00 0.00 0.00 85 1013.1
20260507182833 62 71 1.7 4.3 0.00 0.00 0.00 85 1013.2
20260507182332 62 74 0.9 4.3 0.00 0.00 0.00 85 1013.2
20260507181827 62 69 1.7 4.3 0.00 0.00 0.00 85 1013.1
20260507181341 62 342 0.9 2.6 0.00 0.00 0.00 85 1013.1
20260507180834 62 351 0.9 2.6 0.00 0.00 0.00 85 1013.0
20260507180331 62 360 0.9 1.7 0.00 0.00 0.00 85 1013.1
20260507175842 62 329 0.9 2.6 0.00 0.00 0.00 85 1013.1
20260507175336 62 323 0.9 2.6 0.00 0.00 0.00 85 1013.0
20260507174835 63 19 0.9 1.7 0.00 0.00 0.00 84 1013.0
20260507174328 63 29 0.9 2.6 0.00 0.00 0.00 84 1013.0
20260507173826 63 349 0.9 2.6 0.00 0.00 0.00 83 1012.9
20260507173325 63 63 0.9 2.6 0.00 0.00 0.00 83 1013.0
20260507172840 63 57 0.0 1.7 0.00 0.00 0.00 83 1013.0
20260507172339 63 36 0.9 3.5 0.00 0.00 0.00 82 1013.0
20260507171830 63 42 1.7 3.5 0.00 0.00 0.00 82 1013.1
20260507171329 63 82 1.7 2.6 0.00 0.00 0.00 82 1013.1
20260507170828 63 95 0.0 2.6 0.00 0.00 0.00 82 1013.0
20260507170341 64 82 0.9 2.6 0.00 0.00 0.00 81 1013.0
20260507165834 63 59 0.9 2.6 0.00 0.00 0.00 81 1013.0
20260507165327 63 210 0.0 2.6 0.00 0.00 0.00 82 1012.9
20260507164826 63 210 0.9 2.6 0.00 0.00 0.00 81 1013.0
20260507164325 63 210 1.7 2.6 0.00 0.00 0.00 81 1013.0
20260507163837 64 82 0.9 5.2 0.00 0.00 0.00 81 1013.0
20260507163335 64 117 1.7 5.2 0.00 0.00 0.00 81 1013.0
20260507162830 64 174 0.9 3.5 0.00 0.00 0.00 82 1012.9
20260507162329 63 113 0.9 4.3 0.00 0.00 0.00 82 1012.8
20260507161826 63 82 2.6 6.1 0.00 0.00 0.00 81 1012.9
20260507161340 64 75 2.6 6.1 0.00 0.00 0.00 81 1012.9
20260507160840 64 66 0.0 4.3 0.00 0.00 0.00 80 1012.9
20260507160333 64 100 2.6 5.2 0.00 0.00 0.00 81 1012.9
20260507155831 64 102 2.6 5.2 0.00 0.00 0.00 80 1012.9
20260507155332 64 160 1.7 6.1 0.00 0.00 0.00 79 1012.9
20260507154827 64 113 2.6 5.2 0.00 0.00 0.00 81 1012.8
20260507154327 64 36 0.9 6.1 0.00 0.00 0.00 81 1012.8
20260507153824 64 107 3.5 6.1 0.00 0.00 0.00 79 1012.8
20260507153548 65 91 2.6 6.1 0.00 0.00 0.00 79 1012.8
20260507153341 65 91 2.6 6.1 0.00 0.00 0.00 79 1012.8
20260507153140 65 96 3.5 6.1 0.00 0.00 0.00 79 1012.7
20260507152839 65 96 3.5 6.1 0.00 0.00 0.00 79 1012.7
20260507152339 65 57 3.5 7.0 0.00 0.00 0.00 79 1012.8
20260507152333 65 103 0.9 7.0 0.00 0.00 0.00 79 1012.8
20260507151833 65 57 3.5 7.0 0.00 0.00 0.00 79 1012.8
20260507151333 65 134 1.7 7.0 0.00 0.00 0.00 80 1012.8
20260507150828 64 109 3.5 7.0 0.00 0.00 0.00 79 1012.8
20260507150326 64 182 0.9 7.0 0.00 0.00 0.00 79 1012.9
20260507145838 64 140 1.7 7.0 0.00 0.00 0.00 80 1012.9
20260507145337 64 101 1.7 7.0 0.00 0.00 0.00 80 1013.0
20260507144835 64 97 2.6 7.0 0.00 0.00 0.00 80 1013.0
20260507144329 64 148 2.6 6.1 0.00 0.00 0.00 81 1012.9
20260507143826 64 105 3.5 7.0 0.00 0.00 0.00 81 1013.0
20260507143340 64 111 3.5 7.0 0.00 0.00 0.00 79 1013.0
20260507142837 64 107 2.6 6.1 0.00 0.00 0.00 79 1012.9
20260507142333 65 46 3.5 7.0 0.00 0.00 0.00 78 1012.9
20260507141825 65 111 3.5 7.8 0.00 0.00 0.00 77 1012.8
20260507141325 65 116 2.6 7.0 0.00 0.00 0.00 76 1012.9
20260507140839 64 94 3.5 8.7 0.00 0.00 0.00 77 1013.0
20260507140337 64 112 4.3 8.7 0.00 0.00 0.00 75 1013.0
20260507135828 64 129 4.3 8.7 0.00 0.00 0.00 79 1013.0
20260507135325 64 126 6.1 9.6 0.00 0.00 0.00 80 1013.1
20260507134841 64 90 6.1 10.4 0.00 0.00 0.00 79 1013.2
20260507134334 64 95 5.2 12.2 0.00 0.00 0.00 80 1013.3
20260507133831 64 106 7.0 12.2 0.00 0.00 0.00 80 1013.3
20260507133331 64 115 7.0 12.2 0.00 0.00 0.00 80 1013.4
20260507132824 64 115 7.0 11.3 0.00 0.00 0.00 80 1013.4
20260507132324 63 115 3.5 10.4 0.00 0.00 0.00 80 1013.5
20260507131838 63 69 3.5 9.6 0.00 0.00 0.00 81 1013.5
20260507131337 63 58 5.2 9.6 0.00 0.00 0.00 81 1013.4
20260507130834 64 155 4.3 9.6 0.00 0.00 0.00 81 1013.4
20260507130331 64 114 3.5 9.6 0.00 0.00 0.00 81 1013.2
20260507125827 64 103 4.3 13.0 0.00 0.00 0.00 80 1013.3
20260507125342 64 109 7.0 13.0 0.00 0.00 0.00 79 1013.1
20260507124839 65 137 5.2 10.4 0.00 0.00 0.00 78 1013.1
20260507124337 65 117 3.5 11.3 0.00 0.00 0.00 79 1013.1
20260507123828 65 99 5.2 11.3 0.00 0.00 0.00 79 1013.0
20260507123329 65 118 7.8 11.3 0.00 0.00 0.00 77 1013.0
20260507122841 66 80 4.3 9.6 0.00 0.00 0.00 77 1013.0
20260507122341 66 58 5.2 11.3 0.00 0.00 0.00 77 1012.9
20260507121838 65 63 6.1 11.3 0.00 0.00 0.00 78 1012.8
20260507121333 65 148 7.0 11.3 0.00 0.00 0.00 76 1012.9
20260507120831 65 109 6.1 11.3 0.00 0.00 0.00 77 1012.9
20260507120324 64 99 6.1 10.4 0.00 0.00 0.00 78 1013.0
20260507115841 64 86 4.3 12.2 0.00 0.00 0.00 78 1012.9
20260507115340 64 103 7.8 12.2 0.00 0.00 0.00 78 1012.8
20260507114836 64 85 5.2 10.4 0.00 0.00 0.00 79 1012.9
20260507114335 64 71 4.3 10.4 0.00 0.00 0.00 80 1013.0
20260507113828 64 88 4.3 8.7 0.00 0.00 0.00 80 1013.0
20260507113325 64 94 4.3 11.3 0.00 0.00 0.00 80 1013.0
20260507112842 64 74 3.5 11.3 0.00 0.00 0.00 80 1013.1
20260507112339 64 106 6.1 10.4 0.00 0.00 0.00 80 1013.1
20260507111839 64 133 5.2 10.4 0.00 0.00 0.00 81 1013.1
20260507111332 64 93 5.2 8.7 0.00 0.00 0.00 82 1013.3
20260507110831 64 30 4.3 10.4 0.00 0.00 0.00 82 1013.3
20260507110329 64 65 6.1 11.3 0.00 0.00 0.00 81 1013.2
20260507105840 64 112 4.3 11.3 0.00 0.00 0.00 83 1013.1
20260507105336 63 106 7.8 11.3 0.00 0.00 0.00 83 1013.0
20260507104831 63 95 7.0 13.9 0.00 0.00 0.00 83 1013.0
20260507104326 63 132 7.0 13.9 0.00 0.00 0.00 83 1013.1
20260507103844 64 94 7.0 13.0 0.00 0.00 0.00 80 1013.1
20260507103341 64 96 8.7 13.0 0.00 0.00 0.00 80 1013.1
20260507102843 64 103 7.0 13.9 0.00 0.00 0.00 81 1013.1
20260507102339 64 92 8.7 13.9 0.00 0.00 0.00 80 1013.2
20260507101835 64 88 9.6 13.9 0.00 0.00 0.00 80 1013.1
20260507101333 65 30 8.7 15.6 0.00 0.00 0.00 80 1013.3
20260507100826 65 96 8.7 15.6 0.00 0.00 0.00 80 1013.2
20260507100326 65 69 8.7 13.9 0.00 0.00 0.00 79 1013.2
20260507095836 65 59 8.7 15.6 0.00 0.00 0.00 80 1013.1
20260507095334 65 86 7.8 15.6 0.00 0.00 0.00 80 1012.9
20260507094829 65 147 8.7 15.6 0.00 0.00 0.00 80 1013.0
20260507094324 65 117 8.7 15.6 0.00 0.00 0.00 80 1012.9
20260507093844 64 123 7.0 13.9 0.00 0.00 0.00 82 1012.9
20260507093339 64 107 5.2 13.0 0.00 0.00 0.00 81 1012.9
20260507092837 64 80 4.3 13.9 0.00 0.00 0.00 81 1013.0
20260507092337 65 101 5.2 13.9 0.00 0.00 0.00 79 1012.9
20260507091829 66 113 6.1 10.4 0.00 0.00 0.00 77 1012.7
20260507091329 67 123 3.5 10.4 0.00 0.00 0.00 76 1012.7
20260507090843 66 103 7.0 10.4 0.00 0.00 0.00 75 1012.7
20260507090343 66 59 4.3 10.4 0.00 0.00 0.00 77 1012.6
20260507085840 66 123 6.1 10.4 0.00 0.00 0.00 75 1012.5
20260507085334 66 103 7.0 10.4 0.00 0.00 0.00 75 1012.5
20260507084833 66 136 5.2 10.4 0.00 0.00 0.00 75 1012.6
20260507084328 66 144 4.3 10.4 0.00 0.00 0.00 75 1012.5
20260507083825 66 104 7.0 10.4 0.00 0.00 0.00 74 1012.4
20260507083324 66 71 4.3 10.4 0.00 0.00 0.00 72 1012.4
20260507082838 67 109 4.3 9.6 0.00 0.00 0.00 71 1012.3
20260507082336 67 126 4.3 10.4 0.00 0.00 0.00 71 1012.2
20260507081831 67 113 5.2 10.4 0.00 0.00 0.00 69 1012.2
20260507081331 67 61 4.3 9.6 0.00 0.00 0.00 69 1012.3
20260507080829 67 135 3.5 8.7 0.00 0.00 0.00 68 1012.2
20260507080342 67 111 3.5 9.6 0.00 0.00 0.00 69 1012.2
20260507075838 66 96 5.2 9.6 0.00 0.00 0.00 68 1012.2
20260507075331 66 166 3.5 6.1 0.00 0.00 0.00 70 1012.1
20260507074826 65 164 2.6 4.3 0.00 0.00 0.00 70 1012.2
20260507074325 66 294 1.7 5.2 0.00 0.00 0.00 69 1012.2
20260507073839 65 164 0.9 5.2 0.00 0.00 0.00 70 1012.2
20260507073337 65 38 0.9 5.2 0.00 0.00 0.00 70 1012.2
20260507072830 65 85 2.6 6.1 0.00 0.00 0.00 70 1012.2
20260507072326 65 150 2.6 6.1 0.00 0.00 0.00 72 1012.1
20260507071824 65 285 0.9 2.6 0.00 0.00 0.00 72 1012.2
20260507071339 65 66 0.9 2.6 0.00 0.00 0.00 73 1012.2
20260507070836 64 210 0.9 2.6 0.00 0.00 0.00 74 1012.2
20260507070327 64 128 0.9 3.5 0.00 0.00 0.00 75 1012.2
20260507065824 63 129 2.6 3.5 0.00 0.00 0.00 75 1012.1
20260507065344 63 183 0.9 5.2 0.00 0.00 0.00 76 1012.0
20260507064837 63 128 0.9 5.2 0.00 0.00 0.00 76 1012.0
20260507064334 63 115 2.6 3.5 0.00 0.00 0.00 75 1011.9
20260507063830 63 135 1.7 3.5 0.00 0.00 0.00 76 1011.9
20260507063327 62 175 0.0 6.1 0.00 0.00 0.00 77 1011.8
20260507062843 62 138 3.5 6.1 0.00 0.00 0.00 76 1011.9
20260507062336 63 203 1.7 2.6 0.00 0.00 0.00 75 1011.8
20260507061838 63 174 0.9 1.7 0.00 0.00 0.00 75 1011.8
20260507061330 63 81 0.0 0.0 0.00 0.00 0.00 77 1011.8
20260507060828 62 69 0.0 0.0 0.00 0.00 0.00 78 1011.8
20260507060328 61 34 0.0 1.7 0.00 0.00 0.00 77 1011.9
20260507055836 61 34 0.0 4.3 0.00 0.00 0.00 79 1011.8
20260507055331 61 37 2.6 4.3 0.00 0.00 0.00 80 1011.8
20260507054845 60 57 1.7 2.6 0.00 0.00 0.00 81 1011.7
20260507054336 59 65 1.7 2.6 0.00 0.00 0.00 82 1011.6
20260507053833 59 327 0.9 1.7 0.00 0.00 0.00 82 1011.5
20260507053328 58 26 0.9 2.6 0.00 0.00 0.00 84 1011.6
20260507052841 57 332 1.7 2.6 0.00 0.00 0.00 84 1011.4
20260507052329 57 328 1.7 3.5 0.00 0.00 0.00 84 1011.5
20260507051826 56 325 2.6 3.5 0.00 0.00 0.00 85 1011.3
20260507051344 56 341 2.6 3.5 0.00 0.00 0.00 86 1011.3
20260507050841 55 324 1.7 4.3 0.00 0.00 0.00 87 1011.2
20260507050342 55 16 2.6 4.3 0.00 0.00 0.00 88 1011.3
20260507045837 54 312 3.5 4.3 0.00 0.24 0.00 88 1011.2
20260507045337 54 325 2.6 5.2 0.00 0.24 0.00 88 1011.2
20260507044834 54 342 2.6 5.2 0.00 0.24 0.00 88 1011.0
20260507044328 54 327 3.5 5.2 0.00 0.24 0.00 87 1011.1
20260507043828 55 313 3.5 7.0 0.00 0.24 0.00 86 1011.0
20260507043343 55 322 3.5 7.0 0.00 0.24 0.00 86 1011.0
20260507042840 54 330 3.5 7.0 0.00 0.24 0.00 87 1011.0
20260507042340 54 338 1.7 5.2 0.00 0.24 0.00 88 1011.1
20260507041833 54 360 2.6 5.2 0.00 0.24 0.00 88 1011.1
20260507041330 54 320 2.6 4.3 0.00 0.24 0.00 88 1011.1
20260507040843 54 331 2.6 4.3 0.00 0.24 0.00 88 1010.9
20260507040344 54 323 2.6 4.3 0.00 0.24 0.00 87 1010.9
20260507035838 55 329 2.6 4.3 0.00 0.24 0.00 86 1010.9
20260507035332 54 329 2.6 4.3 0.00 0.24 0.00 87 1010.8
20260507034830 54 346 2.6 5.2 0.00 0.24 0.00 88 1010.8
20260507034324 54 355 2.6 5.2 0.00 0.24 0.00 87 1010.8
20260507033844 55 322 3.5 7.8 0.00 0.24 0.00 86 1010.8
20260507033342 55 321 4.3 7.8 0.00 0.24 0.00 86 1010.7
20260507032837 55 329 1.7 8.7 0.00 0.24 0.00 86 1010.7
20260507032335 55 327 2.6 7.0 0.00 0.24 0.00 86 1010.7
20260507031828 55 326 3.5 7.0 0.00 0.24 0.00 86 1010.6
20260507031325 55 10 3.5 7.8 0.00 0.24 0.00 87 1010.7
20260507030842 55 12 1.7 4.3 0.00 0.24 0.00 88 1010.6
20260507030337 55 9 2.6 7.0 0.00 0.24 0.00 88 1010.6
20260507025833 54 342 2.6 7.8 0.00 0.24 0.00 89 1010.5
20260507025326 54 327 1.7 7.8 0.00 0.24 0.00 90 1010.6
20260507024825 54 350 2.6 4.3 0.00 0.24 0.00 91 1010.6
20260507024342 54 348 2.6 4.3 0.00 0.24 0.00 91 1010.6
20260507023836 54 319 1.7 4.3 0.00 0.24 0.00 91 1010.6
20260507023333 54 325 2.6 4.3 0.00 0.24 0.00 91 1010.7
20260507022827 54 335 1.7 3.5 0.00 0.24 0.00 91 1010.6
20260507022325 54 26 1.7 4.3 0.00 0.24 0.00 91 1010.6
20260507021824 54 341 1.7 4.3 0.00 0.24 0.00 91 1010.5
20260507021340 54 322 3.5 4.3 0.00 0.24 0.00 91 1010.5
20260507020836 54 321 2.6 4.3 0.00 0.24 0.00 91 1010.5
20260507020331 55 340 1.7 3.5 0.00 0.24 0.00 91 1010.5
20260507015843 55 324 2.6 3.5 0.00 0.24 0.00 91 1010.5
20260507015343 55 344 0.9 3.5 0.00 0.24 0.00 90 1010.4
20260507014839 55 328 1.7 3.5 0.00 0.24 0.00 90 1010.3
20260507014341 55 332 1.7 3.5 0.00 0.24 0.00 90 1010.3
20260507013836 55 340 1.7 3.5 0.00 0.24 0.00 89 1010.3
20260507013334 55 360 2.6 3.5 0.00 0.24 0.00 89 1010.2
20260507012831 56 342 1.7 4.3 0.00 0.24 0.00 89 1010.2
20260507012343 56 336 3.5 5.2 0.00 0.24 0.00 89 1010.3